Home > Weather > Moscow > Past weeks

Flag for USA Past Weather in Moscow, Idaho, USA — Yesterday and Last 2 Weeks

Now
91 °F

Sunny.


Feels Like: 88 °F
Forecast: 60 / 96 °F
Wind: N/A

Location: Pullman / Moscow Regional Airport

Current Time: Jul 29, 2016 at 12:53:40 PM

Latest Report: Jul 29, 2016 at 11:53 AM


Visibility: 10 mi

Pressure: 29.93 "Hg (27.43 "Hg at 781m altitude)

Humidity: 23%

Dew Point: 48 °F

Location of MoscowLocation

Past Weather in Moscow — Graph

°F

Moscow Temperature Yesterday

Maximum temperature yesterday: 92 °F (at 2:53 PM)
Minimum temperature yesterday: 54 °F (at 5:53 AM)
Average temperature yesterday: 75 °F

High & Low Weather Summary for the Past Weeks

 TemperatureHumidityPressure
High92 °F (Jul 21, 3:53 PM)90% (Jul 19, 4:53 AM)30.20 "Hg (Jul 19, 4:53 AM)
Low46 °F (Jul 16, 2:53 AM)18% (Jul 21, 3:53 PM)29.85 "Hg (Jul 17, 7:53 PM)
Average68 °F51%30.02 "Hg
* Reported Jul 14 10:53 AM — Jul 29 10:53 AM, Moscow, Weather by CustomWeather, © 2016

Note: Actual official high and low records may vary slightly from our data, if they occured in-between our weather recording intervals... More about our weather records

Advertising

Moscow Weather History for the Previous 24 Hours

Scroll right to see more
 ConditionsComfort  
Time TempWeatherWind HumidityBarometerVisibility
10:53 AM
Fri, Jul 29
88 °FSunny.No wind27%29.95 "Hg10 mi
9:53 AM85 °FSunny.No wind29%29.95 "Hg10 mi
8:53 AM82 °FSunny.5 mph38%29.96 "Hg10 mi
7:53 AM76 °FSunny.3 mph43%29.95 "Hg10 mi
6:53 AM68 °FSunny.No wind55%29.96 "Hg10 mi
5:53 AM57 °FClear.No wind69%29.96 "Hg10 mi
4:53 AM57 °FClear.No wind74%29.96 "Hg10 mi
3:53 AM58 °FClear.No wind70%29.96 "Hg10 mi
2:53 AM60 °FClear.No wind67%29.96 "Hg10 mi
1:53 AM59 °FClear.No wind69%29.96 "Hg10 mi
12:53 AM62 °FClear.No wind65%29.96 "Hg10 mi
11:53 PM
Thu, Jul 28
63 °FClear.No wind63%29.96 "Hg10 mi
10:53 PM65 °FClear.No wind59%29.97 "Hg10 mi
9:53 PM71 °FClear.No wind47%29.97 "Hg10 mi
8:53 PM75 °FSunny.No wind42%29.96 "Hg10 mi
7:53 PM85 °FSunny.3 mph26%29.94 "Hg10 mi
6:53 PM90 °FSunny.5 mph23%29.95 "Hg10 mi
5:53 PM92 °FSunny.3 mph19%29.98 "Hg10 mi
4:53 PM92 °FSunny.5 mph20%29.99 "Hg10 mi
3:53 PM92 °FSunny.6 mph19%30.00 "Hg10 mi
2:53 PM92 °FSunny.No wind19%30.02 "Hg10 mi
1:53 PM91 °FSunny.6 mph21%30.04 "Hg10 mi
12:53 PM91 °FSunny.6 mph23%30.06 "Hg10 mi
Weather by CustomWeather, © 2016

See weather overviewHow to use our weather pages